Regional Weather Roundup
Issued by NWS

Home | Current Version | Previous Version | Text Only | Print | Product List | Glossary On
Versions: 1 2 3 4 5 6 7 8 9 10 11 12 13 14 15 16 17 18 19 20 21 22 23 24 25 26 27 28 29 30 31 32 33 34 35 36 37 38 39 40 41 42 43 44 45 46 47 48 49 50
000
ASUS44 KFWD 020401
RWRTX
NORTH TEXAS HOURLY WEATHER ROUNDUP
NATIONAL WEATHER SERVICE FORT WORTH TX
1100 PM CDT WED OCT 01 2014

NOTE: "FAIR" INDICATES FEW OR NO CLOUDS BELOW 12,000 FEET WITH NO
SIGNIFICANT WEATHER AND/OR OBSTRUCTIONS TO VISIBILITY.

TXZ118-119-020500-
DALLAS/FORT WORTH METROPLEX

CITY           SKY/WX    TMP DP  RH WIND       PRES   REMARKS
DFW AIRPORT    PTCLDY    84  66  54 S14       29.77R
DALLAS LOVE    PTCLDY    84  66  54 S14       29.77S
FTW MEACHAM    CLEAR     84  66  54 S14       29.76S
DAL-EXECUTIVE  CLEAR     83  66  56 SE13G20   29.78S
FTW-ALLIANCE   MOCLDY    83  65  54 S12       29.76S
FTW-NAS-JRB    CLEAR     86  64  47 S13       29.81R
FTW-SPINKS     CLEAR     82  65  57 S12       29.79S
ARLINGTON      CLEAR     83  66  56 SE9       29.78R
GRAND PRAIRIE  CLEAR     83  65  53 SE8       29.79S
ADDISON        PTCLDY    84  64  52 S12G17    29.80R
MESQUITE       CLEAR     80  65  59 SE7       29.79S
LANCASTER      CLEAR     79  64  60 S6        29.80R
$$

TXZ091>094-102>105-117-120-121-131>134-020500-
NORTH CENTRAL TEXAS

CITY           SKY/WX    TMP DP  RH WIND       PRES   REMARKS
SHRMAN/DENISON CLEAR     80  65  60 SE10      29.78F
GAINESVILLE    PTCLDY    76  66  71 SE5       29.79R
BRIDGEPORT     PTCLDY    83  62  49 S9        29.78R
DECATUR        PTCLDY    82  64  53 S13G18    29.78R
DENTON         PTCLDY    83  65  54 S12       29.76S
MCKINNEY       CLEAR     80  67  64 S8        29.78S
GREENVILLE     CLEAR     77  68  73 SE8       29.80S
ROCKWALL       CLEAR     81  68  64 S7        29.78S
TERRELL        CLEAR     81  68  64 SE8       29.80S
WAXAHACHIE     CLEAR     78  67  67 SE7       29.80S
CLEBURNE       CLEAR     81  70  69 S9        29.81R
GRANBURY       CLEAR     83  65  54 E9        29.79R
$$

TXZ083>090-098>101-113>116-127>130-139>142-154-155-020500-
WESTERN NORTH TEXAS

CITY           SKY/WX    TMP DP  RH WIND       PRES   REMARKS
WICHITA FALLS  CLOUDY    83  66  56 S14       29.72R
WF-KICKAPOO    MOCLDY    83  64  51 S16       29.73S
VERNON         PTCLDY    82  62  51 SE10      29.70F
ABILENE        PTCLDY    83  64  52 S15       29.77S
ABILENE-DYESS  PTCLDY    83  65  54 S18       29.77R
MINERAL WELLS  CLEAR     83  65  54 S16       29.75S
STEPHENVILLE   CLEAR     80  64  59 S8        29.82S
COMANCHE       CLEAR     80  64  58 S9        29.80S
COLEMAN        CLEAR     80  64  57 S12       29.81R
BRADY          CLEAR     81  64  57 SE8       29.83R
$$

TXZ143>147-156>162-174-175-020500-
CENTRAL TEXAS

CITY           SKY/WX    TMP DP  RH WIND       PRES   REMARKS
WACO           CLEAR     82  69  64 S15       29.79S
WACO-TSTC      CLEAR     81  68  65 SE6       29.80R
WACO-MCGREGOR  CLEAR     81  64  57 S13       29.80S
CORSICANA      CLEAR     80  68  66 SE9       29.82R
MEXIA          CLEAR     78  71  78 SE7       29.81S
HEARNE         CLEAR     79  72  78 SE7       29.83R
CAMERON        CLEAR     81  73  75 S10G17    29.81R
TEMPLE         CLEAR     81  66  61 SE15      29.80S
KILLEEN        CLEAR     79  66  65 S8        29.81S
KILLEEN-SKYLRK CLEAR     79  64  61 S8        29.81S
FORT HOOD      CLEAR     82  68  62 SE9       29.81R
HAMILTON       CLEAR     80  64  59 S12G17    29.82R
LAMPASAS       CLEAR     78  67  69 S5        29.81S
$$

TXZ095>097-106>112-122>126-135>138-148>153-164>167-020500-
EAST TEXAS

CITY           SKY/WX    TMP DP  RH WIND       PRES   REMARKS
PARIS          CLEAR     77  66  69 SE8       29.82R
SULPHUR SPRNGS CLEAR     81  70  69 S9        29.82S
MOUNT PLEASANT CLEAR    N/A N/A N/A SE6       29.83S
MINEOLA        CLEAR     81  73  78 SE6       29.83R
TYLER          CLEAR     79  72  79 S9        29.83R
LONGVIEW       CLEAR     78  71  79 S9        29.83S
MARSHALL       CLEAR     80  74  83 SE3       29.87R
ATHENS         CLEAR     77  72  83 SE6       29.81S
PALESTINE      CLEAR     79  74  84 SE6       29.84S
JACKSONVILLE   CLEAR     77  73  87 S10       29.87R
HENDERSON      CLEAR     77  72  85 S7        29.85S
NACOGDOCHES    CLEAR     77  73  88 S6        29.86R
LUFKIN         CLEAR     79  74  84 SE7       29.86R
$$

SUPPLEMENTAL OBSERVATIONS (CENTRAL)

CITY           SKY/WX    TMP DP  RH WIND       PRES   REMARKS
$$

SUPPLEMENTAL OBSERVATIONS (WEST)

CITY           SKY/WX    TMP DP  RH WIND       PRES   REMARKS
$$

SUPPLEMENTAL OBSERVATIONS (EAST)

CITY           SKY/WX    TMP DP  RH WIND       PRES   REMARKS
$$

SUPPLEMENTAL OBSERVATIONS ARE A COLLECTION OF AUTOMATED INSTRUMENTS
THAT ARE MAINTAINED BY A VARIETY OF FEDERAL AND STATE AGENCIES.
CERTAIN ELEMENTS...SUCH AS HUMIDITY VALUES AND SUSTAINED WIND
SPEEDS...MAY BE APPROXIMATED.



USA.gov is the U.S. government's official web portal to all federal, state and local government web resources and services.